[[{"header":{"parameterUnit":"m.s-1","parameterCategory":1,"la1":30.2991,"la2":30.254,"lo1":-89.0895,"lo2":-89.0444,"dy":0.0017,"dx":0.0017,"nx":28,"ny":28,"refTime":"2025-01-20T09:00:00:Z","depth":0,"parameterNumber":2,"parameterNumberName":"U-component_of_WINDS"},"data":[0,0,0,0,0,0,0,0,0,0,0,0,0,0,0,0,0,0,0,0,0,0,0,0,0,0,0,0,0,0,0,0,0,0,0,0,0,0,0,0,0,0,0,0,0,0,0,0,0,0,0,0,0,0,0,0,0,0,-2.0128,-2.0128,0,-2.0126,-2.0126,-2.0126,-2.0083,-2.0082,-2.0081,-2.008,-2.0079,-2.008,-2.0081,0,0,0,0,0,0,0,0,0,0,0,0,0,-2.0096,-2.0097,-2.0128,-2.0128,-2.0128,-2.0126,-2.0126,-2.0126,-2.0083,-2.0082,-2.0081,-2.0079,-2.0079,-2.008,-2.0081,0,0,0,0,0,0,0,0,0,0,0,0,0,-2.0104,-2.0097,-2.0128,-2.0106,-2.0104,-2.0126,-2.0126,-2.0126,-2.0083,-2.0082,-2.008,-2.0079,-2.0078,-2.008,-2.0081,-2.0124,0,0,-2.0086,-2.0087,0,0,0,0,0,0,0,0,-2.0103,-2.0105,-2.011,-2.0108,-2.0106,-2.0103,-2.0114,-2.0125,-2.0084,-2.0092,-2.008,-2.0078,-2.0089,-2.0089,-2.0092,-2.0124,-2.0124,-2.0086,-2.0087,-2.0088,-2.0088,0,0,0,0,0,0,0,-2.0103,-2.0105,-2.0127,-2.011,-2.0107,-2.0097,-2.0096,-2.0116,-2.0099,-2.0091,-2.0088,-2.0088,-2.0087,-2.0091,-2.0092,-2.0124,-2.0086,-2.0088,-2.0089,-2.0089,-2.019,-2.0192,0,0,0,0,0,0,-2.0105,-2.0104,-2.0127,-2.0127,-2.01,-2.0099,-2.0098,-2.0106,-2.0099,-2.0096,-2.0089,-2.0086,-2.0089,-2.009,-2.0092,-2.0141,-2.0088,-2.0089,-2.009,-2.0188,-2.0191,-2.0192,0,0,0,0,0,0,-2.0104,-2.0107,-2.0127,-2.0115,-2.0117,-2.0101,-2.011,-2.0106,-2.011,-2.0098,-2.0095,-2.0096,-2.0088,-2.009,-2.0116,-2.0141,-2.009,-2.0091,-2.0186,-2.0189,-2.0191,-2.0241,0,0,0,0,0,0,-2.0104,-2.0107,-2.0123,-2.0116,-2.0118,-2.0152,-2.0112,-2.0108,-2.0113,-2.0108,-2.0104,-2.0101,-2.0087,-2.0114,-2.0118,-2.0142,-2.0093,-2.0184,-2.0188,-2.0191,-2.0237,-2.0245,-2.0251,0,0,0,0,0,-2.0103,-2.0138,-2.0124,-2.0127,-2.0137,-2.0153,-2.0154,-2.0136,-2.0115,-2.0131,-2.0123,-2.0102,-2.0137,-2.0117,-2.0121,-2.0146,-2.0182,-2.0187,-2.019,-2.0234,-2.0243,-2.0251,0,0,0,0,0,0,-2.015,-2.0136,-2.0121,-2.0155,-2.0156,-2.0146,-2.0166,-2.0147,-2.0154,-2.015,-2.0128,-2.0127,-2.0157,-2.0154,-2.0132,-2.0187,-2.0156,-2.0161,-2.0188,-2.0197,-2.0204,-2.0204,-2.0094,0,0,0,0,0,-2.0164,-2.0178,-2.0165,-2.0196,-2.0197,-2.0181,-2.0188,-2.0174,-2.0174,-2.0174,-2.0168,-2.0169,-2.018,-2.0188,-2.0198,-2.0236,-2.0234,-2.0255,-2.0262,-2.0268,-2.0273,-2.0293,-2.0302,-2.0206,-2.0205,-2.0205,0,0,-2.0194,-2.0188,-2.0198,-2.0206,-2.0204,-2.0219,-2.0182,-2.02,-2.0211,-2.0177,-2.0201,-2.0197,-2.0196,-2.0229,-2.0242,-2.0227,-2.0299,-2.0273,-2.0278,-2.028,-2.0298,-2.0307,-2.0315,-2.0208,-2.0208,-2.0207,0,0,-2.0255,-2.0252,-2.0278,-2.0277,-2.0275,-2.0264,-2.027,-2.0263,-2.0259,-2.0283,-2.0257,-2.027,-2.029,-2.0291,-2.0294,-2.0355,-2.0335,-2.0359,-2.0397,-2.0417,-2.0424,-2.0431,-2.0453,-2.0461,-2.0363,-2.0363,-2.0363,0,-2.0293,-2.0314,-2.0293,-2.0312,-2.0316,-2.0285,-2.031,-2.0311,-2.0313,-2.0316,-2.0298,-2.0323,-2.032,-2.0352,-2.0367,-2.037,-2.0377,-2.0359,-2.0425,-2.0431,-2.0437,-2.0458,-2.0466,-2.0366,-2.0366,-2.0366,-2.0365,0,-2.036,-2.0375,-2.0395,-2.0397,-2.0403,-2.0426,-2.0408,-2.0417,-2.0402,-2.0394,-2.0418,-2.0414,-2.0422,-2.0429,-2.0415,-2.0459,-2.0449,-2.0428,-2.0397,-2.0449,-2.0468,-2.0476,-2.037,-2.0369,-2.0368,-2.0368,0,0,-2.0452,-2.0441,-2.0449,-2.0449,-2.0445,-2.0456,-2.0477,-2.0484,-2.0492,-2.0494,-2.0511,-2.0528,-2.0509,-2.0512,-2.0498,-2.0515,-2.0564,-2.0492,-2.0492,-2.0506,-2.0612,-2.0628,-2.0637,-2.055,-2.0552,-2.0553,-2.0612,0,-2.0512,-2.0546,-2.0528,-2.0565,-2.0578,-2.0549,-2.0566,-2.0566,-2.0558,-2.0568,-2.0559,-2.0572,-2.0545,-2.0547,-2.0563,-2.0555,-2.0585,-2.055,-2.0566,-2.0567,-2.0568,-2.0647,-2.0664,-2.072,-2.0619,-2.062,-2.0621,0,-2.0587,-2.0591,-2.0629,-2.0621,-2.0626,-2.0643,-2.0648,-2.0658,-2.0656,-2.0649,-2.0653,-2.0634,-2.0654,-2.0623,-2.065,-2.0627,-2.0632,-2.0629,-2.0631,-2.0632,-2.0598,-2.0651,-2.0737,-2.0746,-2.0633,-2.0632,-2.0631,0,-2.065,-2.0666,-2.069,-2.0691,-2.0683,-2.0695,-2.0692,-2.0689,-2.0694,-2.0698,-2.0702,-2.0709,-2.0713,-2.0719,-2.0702,-2.0681,-2.0732,-2.0699,-2.0727,-2.0728,-2.074,-2.0739,-2.0829,-2.0743,-2.0742,-2.0742,-2.0742,0,-2.0719,-2.0744,-2.0719,-2.0734,-2.0761,-2.0739,-2.0766,-2.076,-2.0757,-2.0771,-2.0745,-2.0759,-2.0737,-2.0748,-2.0735,-2.076,-2.0762,-2.0757,-2.0754,-2.076,-2.076,-2.0763,-2.0759,-2.0744,-2.0744,-2.0744,-2.0743,0,-2.0796,-2.078,-2.0805,-2.0794,-2.0792,-2.0812,-2.0803,-2.0817,-2.0806,-2.0824,-2.0827,-2.0811,-2.0823,-2.0807,-2.0818,-2.081,-2.0843,-2.0834,-2.0844,-2.0841,-2.087,-2.0867,-2.0964,-2.0976,-2.0883,-2.0883,-2.0884,0,-2.0841,-2.0859,-2.085,-2.0857,-2.0855,-2.0867,-2.0872,-2.0851,-2.0857,-2.0856,-2.087,-2.088,-2.0887,-2.0907,-2.0897,-2.0905,-2.0896,-2.0929,-2.0897,-2.0902,-2.0897,-2.0896,-2.0898,-2.0936,-2.0937,-2.0938,-2.0939,0,-2.0923,-2.0914,-2.0922,-2.0927,-2.0934,-2.0937,-2.0939,-2.0946,-2.0924,-2.0932,-2.0944,-2.0949,-2.0959,-2.0969,-2.0974,-2.0971,-2.0952,-2.0949,-2.0956,-2.0962,-2.0968,-2.0965,-2.0862,-2.0947,-2.0946,-2.0946,-2.0945,-2.0945,-2.0986,-2.1,-2.0996,-2.1005,-2.1004,-2.1005,-2.1018,-2.1009,-2.1018,-2.1024,-2.1011,-2.1026,-2.1023,-2.1028,-2.1027,-2.1038,-2.1024,-2.1034,-2.1037,-2.1039,-2.1044,-2.0965,-2.1039,-2.1039,-2.1039,-2.1039,-2.1038,0,-2.1067,-2.1062,-2.1071,-2.1073,-2.1081,-2.106,-2.1061,-2.1069,-2.1082,-2.108,-2.1087,-2.11,-2.111,-2.11,-2.1107,-2.1118,-2.1109,-2.1121,-2.112,-2.112,-2.1056,-2.105,-2.1128,-2.1128,-2.1128,-2.1128,-2.1128,-2.1128,-2.111,-2.1133,-2.1124,-2.1146,-2.1141,-2.1155,-2.1157,-2.1158,-2.1157,-2.1172,-2.118,-2.1173,-2.1168,-2.1175,-2.1183,-2.118,-2.1184,-2.1199,-2.1192,-2.1133,-2.1125,-2.1116,-2.111,-2.12,-2.12,-2.1255,-2.1256,-2.1256]},{"header":{"parameterUnit":"m.s-1","parameterCategory":1,"la1":30.2991,"la2":30.254,"lo1":-89.0895,"lo2":-89.0444,"dy":0.0017,"dx":0.0017,"nx":28,"ny":28,"refTime":"2025-01-20T09:00:00:Z","depth":0,"parameterNumber":3,"parameterNumberName":"V-component_of_WINDS"},"data":[0,0,0,0,0,0,0,0,0,0,0,0,0,0,0,0,0,0,0,0,0,0,0,0,0,0,0,0,0,0,0,0,0,0,0,0,0,0,0,0,0,0,0,0,0,0,0,0,0,0,0,0,0,0,0,0,0,0,-4.9641,-4.9642,0,-4.9686,-4.9686,-4.9687,-4.9664,-4.9663,-4.9661,-4.966,-4.9702,-4.9704,-4.9706,0,0,0,0,0,0,0,0,0,0,0,0,0,-4.9532,-4.9534,-4.9641,-4.9642,-4.9642,-4.9686,-4.9686,-4.9687,-4.9664,-4.9663,-4.9661,-4.966,-4.9701,-4.9704,-4.9706,0,0,0,0,0,0,0,0,0,0,0,0,0,-4.9578,-4.9535,-4.9641,-4.9636,-4.9636,-4.9686,-4.9686,-4.9687,-4.9664,-4.9663,-4.9661,-4.9659,-4.97,-4.9703,-4.9707,-4.9762,0,0,-4.9717,-4.9718,0,0,0,0,0,0,0,0,-4.9576,-4.9582,-4.9636,-4.9637,-4.9637,-4.9668,-4.9663,-4.9712,-4.9665,-4.9654,-4.966,-4.9658,-4.9692,-4.9695,-4.9708,-4.9764,-4.9766,-4.9717,-4.9719,-4.972,-4.9721,0,0,0,0,0,0,0,-4.9573,-4.958,-4.9659,-4.9637,-4.9637,-4.963,-4.9635,-4.9672,-4.9682,-4.9654,-4.9653,-4.9659,-4.9691,-4.9704,-4.9708,-4.9767,-4.9717,-4.972,-4.9722,-4.9723,-4.9871,-4.9873,0,0,0,0,0,0,-4.957,-4.9578,-4.9657,-4.966,-4.9601,-4.9634,-4.9639,-4.9659,-4.9681,-4.9683,-4.966,-4.9657,-4.97,-4.9705,-4.971,-4.9777,-4.972,-4.9724,-4.9725,-4.9869,-4.9872,-4.9874,0,0,0,0,0,0,-4.9568,-4.9578,-4.9656,-4.9619,-4.9628,-4.9638,-4.9661,-4.9661,-4.9674,-4.9686,-4.9687,-4.9672,-4.9698,-4.9705,-4.975,-4.9778,-4.9725,-4.9728,-4.9867,-4.987,-4.9873,-4.9911,0,0,0,0,0,0,-4.9565,-4.9577,-4.9599,-4.9619,-4.963,-4.9696,-4.9662,-4.9663,-4.9681,-4.9678,-4.9697,-4.9699,-4.9698,-4.9745,-4.9753,-4.9781,-4.9731,-4.9864,-4.9868,-4.9872,-4.9907,-4.9915,-4.9921,0,0,0,0,0,-4.9561,-4.9607,-4.96,-4.961,-4.9658,-4.9698,-4.9704,-4.9703,-4.9683,-4.9705,-4.9712,-4.9698,-4.9773,-4.975,-4.9759,-4.9788,-4.9863,-4.9867,-4.9871,-4.9904,-4.9913,-4.9921,0,0,0,0,0,0,-4.9588,-4.9609,-4.9602,-4.9656,-4.9676,-4.9694,-4.9721,-4.9712,-4.9737,-4.9733,-4.9729,-4.9733,-4.978,-4.9788,-4.9762,-4.9843,-4.9815,-4.9821,-4.9836,-4.9845,-4.9852,-4.9849,-4.9733,0,0,0,0,0,-4.96,-4.9632,-4.9649,-4.9694,-4.9705,-4.9712,-4.9729,-4.9726,-4.9746,-4.9753,-4.9764,-4.9782,-4.9809,-4.9828,-4.9854,-4.9908,-4.9912,-4.9933,-4.994,-4.9945,-4.9951,-4.9981,-4.999,-4.9888,-4.9888,-4.9888,0,0,-4.9626,-4.9641,-4.9661,-4.97,-4.9715,-4.9747,-4.9718,-4.9753,-4.9776,-4.9758,-4.9801,-4.981,-4.9829,-4.9879,-4.9902,-4.9888,-4.998,-4.9951,-4.9956,-4.9958,-4.9986,-4.9996,-5.0004,-4.9891,-4.9891,-4.989,0,0,-4.9689,-4.9704,-4.9744,-4.976,-4.9783,-4.9788,-4.9797,-4.9817,-4.9823,-4.9866,-4.9853,-4.988,-4.9928,-4.9943,-4.9957,-5.0026,-5.0014,-5.0034,-5.0071,-5.01,-5.0108,-5.0115,-5.014,-5.0149,-5.004,-5.004,-5.004,0,-4.9717,-4.9766,-4.9766,-4.9802,-4.982,-4.9806,-4.9846,-4.9861,-4.9891,-4.9902,-4.9886,-4.9947,-4.9959,-5.0012,-5.003,-5.0041,-5.0051,-5.0032,-5.0107,-5.0114,-5.0121,-5.0145,-5.0154,-5.0042,-5.0042,-5.0042,-5.0042,0,-4.98,-4.9834,-4.9864,-4.9895,-4.9916,-4.9954,-4.9958,-4.9978,-4.9974,-4.998,-5.0025,-5.0039,-5.0068,-5.008,-5.0076,-5.0133,-5.0124,-5.0108,-5.0079,-5.0133,-5.0155,-5.0164,-5.0046,-5.0045,-5.0044,-5.0044,0,0,-4.9881,-4.9913,-4.9923,-4.9938,-4.9963,-4.9988,-5.0025,-5.0055,-5.0073,-5.0094,-5.0125,-5.0166,-5.0151,-5.0167,-5.0164,-5.0189,-5.0244,-5.017,-5.017,-5.0184,-5.0308,-5.032,-5.0331,-5.0236,-5.0238,-5.0239,-5.0307,0,-4.9946,-5.0013,-5.0014,-5.0075,-5.0107,-5.0094,-5.0126,-5.0144,-5.0151,-5.0177,-5.0183,-5.0213,-5.0191,-5.0201,-5.0225,-5.0232,-5.0269,-5.0227,-5.0264,-5.0265,-5.026,-5.0343,-5.0356,-5.0419,-5.0315,-5.0317,-5.0318,0,-5.0031,-5.0057,-5.0122,-5.0143,-5.0156,-5.0185,-5.0213,-5.0239,-5.0259,-5.0261,-5.028,-5.0273,-5.031,-5.028,-5.033,-5.0302,-5.0317,-5.0322,-5.0325,-5.0328,-5.0295,-5.0349,-5.0439,-5.0448,-5.0331,-5.033,-5.0329,0,-5.0085,-5.0135,-5.0181,-5.0193,-5.0219,-5.024,-5.0251,-5.0269,-5.0287,-5.0311,-5.0323,-5.035,-5.0364,-5.0385,-5.0385,-5.0364,-5.0436,-5.0406,-5.0439,-5.0439,-5.0455,-5.0454,-5.0549,-5.0464,-5.0464,-5.0464,-5.0464,0,-5.0157,-5.0198,-5.0205,-5.0233,-5.0278,-5.0278,-5.0321,-5.033,-5.0347,-5.0375,-5.0365,-5.0392,-5.0391,-5.0418,-5.0418,-5.046,-5.0466,-5.0469,-5.0469,-5.047,-5.047,-5.048,-5.0476,-5.0466,-5.0466,-5.0465,-5.0465,0,-5.0225,-5.0231,-5.028,-5.0301,-5.0307,-5.0339,-5.0356,-5.0382,-5.0387,-5.0424,-5.0432,-5.044,-5.0472,-5.0474,-5.051,-5.051,-5.0561,-5.0555,-5.0555,-5.0554,-5.0587,-5.0584,-5.0692,-5.0706,-5.0611,-5.0612,-5.0613,0,-5.0271,-5.0302,-5.0326,-5.0346,-5.0359,-5.039,-5.0409,-5.041,-5.043,-5.0455,-5.0478,-5.0509,-5.0533,-5.0583,-5.0592,-5.0619,-5.0614,-5.065,-5.0618,-5.0619,-5.0615,-5.0614,-5.0617,-5.0656,-5.0657,-5.0658,-5.0659,0,-5.0353,-5.0355,-5.0383,-5.0414,-5.0437,-5.046,-5.0482,-5.0498,-5.0501,-5.0524,-5.0557,-5.0576,-5.0613,-5.0643,-5.067,-5.068,-5.067,-5.0669,-5.0678,-5.068,-5.0679,-5.0681,-5.0572,-5.0667,-5.0666,-5.0665,-5.0665,-5.0665,-5.0411,-5.0438,-5.046,-5.0493,-5.0509,-5.053,-5.0556,-5.0565,-5.0593,-5.0625,-5.0623,-5.0659,-5.0678,-5.0713,-5.0726,-5.0753,-5.0741,-5.0754,-5.0757,-5.076,-5.0764,-5.0674,-5.0758,-5.0757,-5.0757,-5.0757,-5.0757,0,-5.0493,-5.0507,-5.0536,-5.0568,-5.0593,-5.0583,-5.0607,-5.0628,-5.0661,-5.068,-5.0705,-5.0742,-5.0772,-5.0783,-5.0811,-5.0831,-5.0827,-5.0839,-5.0837,-5.084,-5.0773,-5.0763,-5.0841,-5.0841,-5.0841,-5.0841,-5.0841,-5.0841,-5.0538,-5.0584,-5.0589,-5.0642,-5.0655,-5.0692,-5.0707,-5.0725,-5.0741,-5.0784,-5.0809,-5.0817,-5.0832,-5.0862,-5.0888,-5.089,-5.0901,-5.0915,-5.0915,-5.0853,-5.0844,-5.0836,-5.0827,-5.0917,-5.0917,-5.098,-5.098,-5.0981]}]]